Regional Weather Roundup
Issued by NWS

Home | Current Version | Previous Version | Text Only | Print | Product List | Glossary On
Versions: 1 2 3 4 5 6 7 8 9 10 11 12 13 14 15 16 17 18 19 20 21 22 23 24 25 26 27 28 29 30 31 32 33 34 35 36 37 38 39 40 41 42 43 44 45 46 47 48 49 50
000
ASUS43 KLMK 172002
RWRKY
KENTUCKY REGIONAL WEATHER ROUNDUP
NATIONAL WEATHER SERVICE LOUISVILLE KY
400 PM EDT FRI APR 17 2015

NOTE "FAIR" INDICATES FEW OR NO CLOUDS BELOW 12,000 FEET
WITH NO SIGNIFICANT WEATHER AND/OR OBSTRUCTIONS TO VISIBILITY.

KYZ001>023-026-027-061>063-070>075-172100-
WESTERN AND SOUTH CENTRAL KENTUCKY

CITY           SKY/WX    TMP DP  RH WIND       PRES   REMARKS
PADUCAH        CLOUDY    74  61  63 SE3       30.02F
HENDERSON      CLOUDY    73  61  64 NE7       30.02F
OWENSBORO      CLOUDY    75  60  59 S6        30.04F
HOPKINSVILLE   CLOUDY    69  61  77 NE3       30.04F
BOWLING GREEN  CLOUDY    72  59  63 CALM      30.05F
GLASGOW        NOT AVBL
$$

KYZ024-025-028>034-038-045-046-053-172100-
NORTH CENTRAL KENTUCKY

CITY           SKY/WX    TMP DP  RH WIND       PRES   REMARKS
LOUISVILLE/SDF CLOUDY    75  58  55 SE6       30.03F
LOUISVILLE/LOU CLOUDY    74  58  57 S8        30.04F
FORT KNOX      CLOUDY    73  58  58 S1        30.03F
$$

KYZ035>037-039>044-047>052-055>060-089>105-172100-
NORTHEAST KENTUCKY

CITY           SKY/WX    TMP DP  RH WIND       PRES   REMARKS
LEXINGTON      PTSUNNY   72  58  61 VRB5      30.06F
COVINGTON      PTSUNNY   74  48  39 W5        30.05F
FRANKFORT      PTSUNNY   72  59  63 S7        30.04F
$$

KYZ054-064>069-076>088-106>120-172100-
SOUTHEAST KENTUCKY

CITY           SKY/WX    TMP DP  RH WIND       PRES   REMARKS
JACKSON        PTSUNNY   76  57  51 VRB3      30.06F
LONDON         MOSUNNY   74  52  46 W6        30.05F
SOMERSET       NOT AVBL
MIDDLESBORO    PTSUNNY   74  57  55 S3        30.05F
MONTICELLO     MOCLDY    74  59  59 SW3       30.08F
$$




USA.gov is the U.S. government's official web portal to all federal, state and local government web resources and services.